Wind_Speed
13 13 12 10 9 8 7 5 3 1 2 2 2 3 5 7 8 8 8 6 9 13 11 11 11 8 5 3 5 3 2 4 4 8 8 15 7 4 5 16 6 5 15 20 24
13 13 12 11 9 9 7 4 2 1 2 3 3 4 5 7 8 10 10 10 9 12 15 9 9 8 3 3 3 3 1 2 3 5 9 14 12 10 10 10 8 14 19 26 24
13 13 12 11 10 9 7 4 2 1 2 4 4 4 5 6 6 8 13 10 9 10 9 10 10 3 3 3 2 1 1 3 4 8 18 15 12 6 14 6 10 28 30 25 23
13 12 12 11 10 9 7 4 2 1 3 4 5 5 5 6 3 11 14 12 11 10 11 12 6 2 2 2 2 1 4 3 9 13 15 13 12 14 2 1 15 25 25 25 21
13 12 12 11 10 9 6 4 2 1 3 5 5 6 6 3 3 13 15 14 11 11 11 6 3 2 2 1 1 1 3 6 11 13 14 13 10 11 5 14 23 24 22 22 20
13 12 12 11 10 8 6 4 2 2 4 6 7 6 5 4 7 15 16 15 12 12 10 2 4 2 3 2 2 2 11 16 11 12 10 9 7 3 8 19 22 24 21 19 19
13 13 12 11 9 7 5 4 0 3 5 7 7 7 5 2 7 18 20 13 10 10 8 8 8 2 2 0 3 6 17 11 9 7 4 12 5 0 14 19 21 21 20 19 19
14 14 12 11 8 6 4 2 3 4 6 6 7 7 5 4 11 19 19 12 8 5 7 6 4 1 1 1 2 6 5 4 6 9 9 3 2 6 17 21 21 20 19 20 20
15 14 12 10 6 4 4 4 5 6 6 6 7 6 5 9 16 17 16 13 13 7 3 6 2 1 2 2 4 3 5 6 8 7 6 9 2 9 18 20 20 21 20 19 18
15 14 12 8 3 3 4 6 7 6 7 6 4 5 6 7 18 18 15 13 5 3 3 3 0 2 3 2 2 2 4 3 6 4 10 10 7 11 20 20 21 21 20 19 20
16 13 10 6 1 2 4 5 2 3 3 2 4 5 10 13 16 18 18 12 5 5 2 2 1 3 7 4 1 4 5 4 4 2 5 8 8 11 20 20 19 21 21 22 24
16 12 8 4 2 4 6 4 6 1 1 4 5 7 11 14 8 16 17 8 7 4 3 3 2 3 3 3 6 5 5 5 4 3 3 2 9 11 21 27 27 25 25 26 25
16 11 6 2 6 8 7 5 5 3 1 2 4 7 10 9 6 17 21 8 5 4 5 4 1 10 5 7 9 12 10 7 2 3 4 6 8 11 15 21 24 24 23 25 26
16 9 3 1 9 9 4 4 5 2 2 3 4 6 10 9 5 16 22 10 5 8 6 5 4 5 7 8 10 8 6 9 5 3 4 5 5 3 10 17 23 27 27 29 28
15 8 1 7 6 9 4 3 3 3 4 4 4 6 11 7 11 11 21 13 8 6 5 2 3 1 5 3 11 1 2 5 5 3 3 1 3 3 3 10 18 25 29 29 29
14 5 3 7 10 11 5 2 1 1 1 3 4 6 7 2 3 7 11 6 5 5 5 7 3 4 1 5 9 13 13 9 5 1 4 4 5 8 3 1 1 16 27 31 28
9 2 4 8 12 12 7 3 0 1 2 2 2 3 5 5 3 4 9 9 7 4 8 4 8 2 4 9 10 2 7 0 1 2 4 3 6 10 4 5 5 13 17 27 29
8 7 8 10 11 10 9 2 2 0 2 1 2 4 5 4 2 2 6 11 3 2 2 4 6 4 5 12 10 15 5 6 8 6 4 3 6 4 2 5 7 8 11 18 24
13 13 10 11 6 7 3 1 3 4 1 2 2 3 2 2 2 3 4 4 6 10 9 5 6 2 4 4 6 7 8 3 3 2 4 4 6 8 4 2 7 11 11 11 9
14 16 14 8 4 4 2 2 2 4 2 2 2 2 4 4 5 3 3 1 4 5 5 5 9 9 3 4 3 5 6 4 3 6 9 7 4 9 7 4 4 6 7 10 7
4 5 6 6 3 2 1 2 4 6 5 2 3 3 2 4 3 3 4 1 1 3 3 4 4 13 2 7 13 5 4 2 2 3 11 14 6 2 3 3 4 3 4 6 7
4 3 3 5 2 2 1 1 4 3 0 2 2 2 2 2 3 2 3 2 1 1 1 2 2 7 14 1 2 2 10 10 8 6 4 5 5 1 2 6 8 7 7 8 9
4 3 6 4 2 2 3 2 3 3 3 1 2 3 3 3 2 1 1 1 3 1 3 5 3 5 7 4 3 5 4 4 3 2 7 8 6 3 5 6 7 8 9 9 12
3 1 5 7 6 2 3 3 3 4 1 3 3 2 3 2 3 2 0 2 5 1 2 6 3 7 11 5 2 3 4 4 6 5 5 7 5 7 7 6 8 8 9 10 11
6 3 2 2 4 3 2 4 3 3 5 4 3 3 3 2 1 1 2 3 3 3 3 3 8 5 5 4 4 2 3 6 8 3 6 3 4 3 9 9 11 10 9 8 9
4 3 3 2 2 2 3 3 3 3 2 2 3 3 2 3 4 4 4 4 5 1 1 1 3 4 5 1 2 2 2 3 2 3 5 3 5 1 10 15 13 11 9 7 7
9 6 2 2 3 1 2 3 1 5 3 2 0 2 4 1 2 5 5 3 3 3 1 3 5 5 7 0 3 4 2 2 1 2 3 2 4 10 10 12 13 12 11 11 10
Wind_Direction
359 357 358 354 343 340 344 341 342 345 187 214 178 171 181 171 176 180 178 179 166 155 161 148 142 155 124 69 49 53 57 128 149 173 147 152 134 92 118 131 125 188 153 154 156
358 355 355 354 342 338 342 349 347 307 183 191 179 170 178 179 185 188 175 169 176 168 161 149 145 146 83 77 74 46 79 163 175 157 151 159 143 131 147 133 111 121 139 151 157
356 353 353 352 341 334 341 351 349 265 206 173 169 168 183 175 180 194 178 172 162 157 166 156 142 139 81 61 92 79 53 355 202 145 149 145 134 131 148 176 181 157 152 158 162
356 352 351 348 340 331 339 344 345 236 187 175 156 173 171 157 166 179 176 165 165 160 178 199 188 142 87 66 138 218 275 270 136 143 145 147 129 132 126 175 157 158 156 159 169
355 351 349 344 339 328 335 338 332 207 178 167 154 157 158 169 138 160 165 167 175 171 179 164 211 78 55 42 188 214 355 78 134 131 134 132 139 135 79 133 147 156 161 167 171
353 350 346 342 337 328 333 334 323 186 169 160 153 154 143 145 160 174 166 171 181 182 185 159 341 298 83 28 354 359 111 110 113 113 126 128 129 137 135 147 152 162 172 176 178
353 349 345 342 338 331 339 336 40 174 164 159 154 147 126 103 153 180 178 171 175 196 229 246 331 33 15 200 21 126 105 94 108 111 105 129 154 163 154 163 160 173 177 182 188
354 348 345 345 342 340 356 10 112 148 152 160 154 137 109 107 152 171 173 168 162 183 221 219 257 109 73 53 67 123 94 135 166 163 164 201 238 148 167 170 172 179 186 191 196
352 348 347 349 349 8 53 87 110 127 137 151 143 131 111 131 148 164 169 169 152 83 104 176 255 125 70 67 133 43 156 153 177 197 166 200 223 175 177 182 182 187 193 200 202
350 348 349 353 358 90 86 100 100 112 126 121 131 129 135 158 157 155 165 184 160 140 152 197 35 72 25 60 181 206 179 176 179 186 190 200 233 179 185 190 194 196 199 206 214
350 349 348 351 126 101 120 114 88 99 169 145 130 87 127 137 156 167 164 161 176 189 226 79 124 158 153 185 192 229 248 184 162 89 195 226 249 200 193 198 200 204 206 213 220
348 349 345 355 141 114 118 97 75 96 126 207 200 133 135 145 142 176 174 168 179 197 175 206 254 172 181 220 267 235 254 246 128 92 209 249 237 198 198 207 206 202 206 216 225
344 348 342 356 151 131 112 80 35 34 122 233 196 189 178 180 166 179 180 182 206 198 218 240 124 137 195 240 246 259 269 263 305 149 119 297 266 206 208 217 218 219 216 217 223
339 343 335 236 158 158 124 44 27 25 64 169 204 193 178 174 190 188 192 181 193 229 211 247 284 256 222 242 225 258 258 249 238 240 280 357 297 268 219 216 213 218 219 220 220
332 332 248 176 166 159 151 62 29 344 163 138 154 177 169 183 141 184 188 195 209 188 189 173 178 113 314 273 182 312 177 139 130 124 285 167 279 273 259 225 221 223 221 223 223
330 322 214 182 174 170 140 100 11 284 156 146 131 157 159 197 120 124 181 200 210 210 239 260 277 282 125 59 155 123 107 88 74 78 258 240 227 286 259 136 269 233 232 227 225
348 22 153 150 161 164 153 164 88 206 340 119 157 170 176 158 148 161 173 197 211 212 253 284 265 221 167 102 150 188 172 246 236 218 271 120 191 254 252 313 307 292 262 237 226
59 92 122 141 149 162 160 108 197 281 264 42 98 112 192 165 140 137 155 206 197 186 226 266 248 213 170 210 200 194 225 248 250 239 278 133 232 245 309 319 343 342 292 239 227
89 89 102 131 124 161 173 161 216 198 354 3 85 151 144 175 168 172 193 218 210 186 227 202 243 254 219 155 192 167 207 267 240 88 266 235 265 268 240 300 7 18 37 61 95
103 84 82 118 122 125 103 230 244 225 272 189 162 224 163 153 171 185 175 117 154 199 243 204 264 263 250 155 91 242 133 194 213 247 252 230 250 260 218 206 36 16 53 70 108
111 83 61 81 87 78 181 249 272 260 231 197 155 135 159 143 143 152 171 89 227 106 170 160 236 254 262 222 240 180 209 189 234 255 266 274 263 229 250 194 151 122 104 103 104
72 74 59 22 59 43 55 287 316 309 43 284 86 95 116 109 116 139 145 164 65 185 277 82 219 257 254 2 330 249 235 215 240 231 245 286 270 65 137 147 145 154 147 125 133
68 82 42 23 67 31 327 299 271 319 14 49 94 30 51 73 112 89 192 224 191 223 187 178 222 265 252 162 163 220 181 183 167 206 229 269 279 137 144 148 143 147 115 124 134
51 81 29 53 69 41 359 12 337 332 48 56 106 125 109 83 33 161 272 299 334 140 183 172 189 254 263 298 331 207 185 195 222 220 246 251 286 191 174 170 144 113 117 114 111
44 66 29 19 48 28 332 341 337 22 22 26 86 78 130 131 134 226 226 278 238 131 90 216 257 207 262 287 258 216 210 190 202 225 247 339 273 7 174 171 137 143 139 139 129
62 27 13 43 333 323 355 22 353 347 335 37 149 152 137 167 216 222 223 222 261 118 144 165 231 207 221 132 329 257 193 184 184 174 237 263 279 181 151 134 141 154 164 169 158
38 23 17 354 357 286 29 332 312 335 217 325 315 174 215 247 331 295 269 286 293 281 205 239 173 192 228 155 321 231 354 298 297 253 295 274 28 154 158 166 162 167 177 171 179
Height
1523 1521 1519 1517 1515 1514 1513 1512 1512 1512 1513 1513 1513 1514 1515 1516 1517 1517 1518 1520 1520 1521 1523 1523 1525 1526 1526 1525 1526 1526 1527 1532 1530 1532 1535 1538 1540 1546 1547 1548 1551 1553 1554 1557 1560
1522 1520 1518 1516 1514 1513 1512 1511 1511 1511 1512 1512 1513 1514 1515 1515 1516 1517 1519 1519 1520 1521 1523 1524 1523 1525 1525 1526 1527 1528 1528 1528 1526 1528 1532 1537 1540 1544 1547 1549 1552 1553 1555 1558 1561
1522 1519 1517 1515 1513 1512 1511 1510 1510 1510 1510 1512 1513 1513 1514 1515 1517 1516 1518 1519 1521 1523 1525 1525 1525 1526 1526 1526 1528 1529 1528 1526 1526 1529 1534 1538 1542 1543 1546 1549 1550 1550 1553 1558 1561
1521 1518 1516 1514 1512 1510 1510 1509 1509 1509 1509 1510 1512 1513 1514 1516 1518 1515 1518 1521 1522 1524 1526 1526 1526 1527 1527 1527 1529 1529 1528 1528 1529 1531 1535 1539 1541 1544 1546 1546 1548 1555 1557 1559 1562
1520 1517 1515 1513 1511 1509 1508 1508 1508 1509 1509 1510 1511 1513 1514 1516 1516 1517 1519 1521 1523 1525 1527 1528 1529 1528 1527 1529 1530 1528 1528 1528 1532 1534 1538 1540 1543 1544 1547 1548 1551 1555 1559 1561 1563
1519 1516 1514 1511 1510 1508 1507 1507 1507 1508 1508 1509 1511 1512 1514 1516 1516 1517 1520 1522 1524 1526 1527 1529 1530 1530 1529 1530 1530 1529 1529 1532 1536 1538 1542 1543 1545 1546 1550 1551 1554 1556 1560 1562 1564
1518 1515 1513 1510 1508 1507 1506 1506 1506 1507 1508 1509 1510 1512 1514 1516 1515 1517 1521 1524 1526 1528 1529 1529 1530 1531 1530 1530 1531 1530 1530 1534 1539 1540 1543 1544 1547 1547 1550 1554 1555 1558 1559 1562 1564
1517 1514 1511 1509 1507 1506 1505 1505 1506 1506 1508 1508 1510 1511 1514 1514 1516 1518 1522 1525 1528 1530 1530 1531 1531 1531 1531 1532 1532 1531 1532 1541 1540 1540 1543 1544 1545 1547 1549 1552 1555 1558 1560 1561 1563
1516 1513 1510 1508 1506 1505 1505 1505 1506 1506 1508 1509 1511 1511 1515 1515 1517 1521 1524 1527 1529 1530 1531 1532 1532 1532 1531 1531 1532 1534 1542 1542 1541 1538 1540 1542 1544 1545 1549 1551 1553 1556 1559 1562 1564
1514 1511 1509 1507 1505 1505 1505 1505 1506 1507 1509 1509 1510 1514 1515 1516 1517 1521 1525 1528 1530 1532 1533 1533 1531 1531 1532 1535 1547 1540 1541 1540 1541 1539 1539 1542 1541 1543 1546 1549 1551 1553 1557 1561 1562
1512 1510 1508 1506 1505 1505 1506 1506 1510 1511 1509 1510 1511 1511 1512 1515 1520 1523 1525 1528 1531 1532 1530 1531 1534 1534 1531 1528 1528 1531 1536 1538 1537 1539 1539 1540 1539 1540 1543 1546 1548 1551 1553 1557 1558
1510 1508 1506 1505 1505 1505 1506 1506 1507 1510 1509 1508 1509 1511 1513 1515 1520 1523 1525 1529 1530 1528 1530 1530 1534 1526 1526 1527 1527 1528 1535 1538 1539 1540 1538 1541 1536 1535 1539 1538 1540 1544 1548 1551 1555
1509 1507 1505 1504 1505 1506 1507 1507 1507 1507 1508 1508 1509 1510 1513 1515 1516 1520 1524 1526 1526 1527 1527 1530 1527 1526 1527 1528 1531 1526 1531 1532 1538 1539 1540 1539 1532 1532 1533 1536 1539 1540 1543 1546 1549
1506 1505 1504 1503 1507 1506 1507 1507 1507 1507 1510 1510 1508 1509 1511 1513 1515 1517 1520 1525 1525 1525 1527 1529 1523 1524 1527 1529 1528 1535 1528 1530 1535 1540 1548 1541 1550 1532 1527 1528 1532 1534 1536 1537 1540
1503 1502 1502 1503 1504 1506 1509 1508 1507 1507 1528 1508 1507 1507 1508 1511 1512 1515 1517 1522 1521 1522 1525 1525 1522 1523 1526 1525 1526 1531 1528 1532 1536 1541 1544 1547 1550 1525 1526 1524 1524 1527 1530 1533 1534
1499 1499 1499 1501 1503 1506 1507 1508 1509 1515 1527 1506 1504 1506 1508 1509 1510 1514 1517 1520 1520 1520 1521 1521 1520 1521 1519 1524 1524 1529 1533 1537 1540 1543 1553 1537 1544 1522 1519 1521 1519 1521 1523 1525 1530
1497 1496 1498 1500 1503 1505 1507 1509 1516 1521 1509 1509 1505 1505 1506 1509 1511 1511 1514 1517 1519 1529 1525 1518 1515 1516 1518 1528 1531 1529 1531 1544 1554 1556 1545 1545 1549 1525 1514 1518 1522 1521 1519 1517 1522
1496 1497 1498 1500 1502 1504 1507 1510 1526 1513 1510 1505 1506 1507 1508 1508 1511 1511 1513 1516 1519 1520 1526 1529 1531 1514 1513 1513 1520 1526 1525 1534 1556 1549 1536 1546 1539 1518 1517 1519 1520 1519 1513 1513 1518
1499 1499 1500 1502 1504 1505 1508 1515 1511 1511 1507 1506 1506 1507 1511 1510 1510 1512 1515 1515 1513 1516 1526 1529 1527 1512 1513 1513 1515 1527 1532 1518 1533 1545 1544 1528 1524 1513 1516 1517 1519 1519 1518 1515 1517
1501 1502 1503 1504 1505 1506 1508 1516 1511 1508 1507 1506 1509 1509 1512 1511 1511 1513 1516 1514 1514 1515 1516 1514 1525 1505 1508 1511 1516 1514 1515 1529 1531 1548 1549 1527 1530 1512 1512 1512 1520 1522 1521 1520 1520
1502 1503 1507 1506 1507 1507 1510 1513 1510 1506 1506 1504 1506 1509 1509 1509 1510 1513 1515 1513 1512 1514 1515 1514 1517 1508 1512 1509 1507 1516 1517 1522 1521 1525 1526 1527 1514 1506 1510 1513 1519 1523 1524 1524 1524
1503 1506 1507 1507 1509 1514 1511 1513 1511 1506 1505 1504 1504 1505 1507 1510 1511 1513 1513 1511 1512 1512 1512 1515 1514 1518 1507 1507 1506 1504 1503 1506 1518 1525 1524 1519 1512 1513 1513 1517 1520 1523 1524 1525 1526
1506 1508 1509 1507 1510 1512 1513 1511 1510 1507 1506 1504 1505 1506 1508 1511 1515 1513 1513 1511 1512 1512 1513 1515 1518 1519 1507 1506 1508 1505 1507 1507 1510 1514 1516 1515 1505 1515 1517 1518 1521 1524 1525 1526 1527
1509 1510 1511 1510 1514 1515 1515 1512 1509 1507 1507 1506 1506 1507 1508 1512 1514 1514 1512 1510 1509 1510 1511 1512 1516 1514 1514 1507 1510 1509 1509 1510 1504 1508 1503 1503 1500 1513 1517 1519 1522 1526 1528 1530 1532
1512 1518 1519 1516 1516 1518 1518 1515 1512 1509 1507 1507 1506 1507 1508 1514 1515 1515 1513 1510 1507 1510 1511 1511 1513 1516 1512 1513 1512 1509 1509 1508 1508 1505 1505 1501 1506 1506 1512 1517 1522 1525 1528 1531 1532
1517 1520 1520 1521 1520 1518 1518 1516 1514 1511 1510 1507 1507 1508 1509 1511 1510 1513 1511 1512 1508 1510 1510 1513 1512 1515 1512 1513 1513 1512 1509 1508 1507 1509 1507 1506 1503 1509 1512 1518 1522 1524 1527 1532 1536
1522 1521 1521 1521 1520 1519 1519 1517 1515 1515 1510 1510 1509 1509 1510 1510 1511 1511 1511 1511 1511 1509 1509 1510 1510 1514 1510 1514 1512 1514 1512 1509 1506 1507 1505 1504 1507 1512 1515 1518 1522 1525 1529 1530 1538